Regional Weather Roundup
Issued by NWS State College, PA

Home | Current Version | Previous Version | Text Only | Print | Product List | Glossary Off
Versions: 1 2 3 4 5 6 7 8 9 10 11 12 13 14 15 16 17 18 19 20 21 22 23 24 25 26 27 28 29 30 31 32 33 34 35 36 37 38 39 40 41 42 43 44 45 46 47 48 49 50

000
ASUS41 KCTP 251403
RWRCTP

REGIONAL WEATHER ROUNDUP
NATIONAL WEATHER SERVICE STATE COLLEGE PA
1000 AM EDT SAT MAR 25 2017

Note: "fair" indicates few or no clouds below 12,000 feet with no
significant weather and/or obstructions to visibility.

* = STATION THAT DOES NOT REPORT PRECIPITATION /E.G. RAIN...SNOW...ETC/
    THUNDER OR FOG.

PAZ002>004-007>009-013>016-020>023-029>032-251500-
WESTERN PENNSYLVANIA

CITY           SKY/WX    TMP DP  RH WIND       PRES   REMARKS
ERIE           CLOUDY    38  36  92 NE17      30.19R FOG
MEADVILLE      CLOUDY    62  51  67 W10       30.14R
FRANKLIN*      CLOUDY    63  50  63 W13       30.16R
NEW CASTLE     CLOUDY    64  52  64 W9        30.16R
BEAVER COUNTY  SUNNY     63  50  63 SW10G17   30.17R
BUTLER*        PTSUNNY   64  50  59 SW13      30.18R
PITTSBURGH INT CLOUDY    66  50  56 SW13      30.16S
PITTSBURGH     PTSUNNY   66  48  52 W12       30.17R
INDIANA*       MOSUNNY   63  52  67 SW8       30.20R
LATROBE        PTSUNNY   63  50  63 SW10      30.19R
WASHINGTON CO* MOSUNNY   64  48  55 SW13G20   30.20S
$$

PAZ004>006-010>012-017>019-024>028-033>037-041-042-045-046-049>053-251500-
CENTRAL PENNSYLVANIA

CITY           SKY/WX    TMP DP  RH WIND       PRES   REMARKS
BRADFORD       CLOUDY    60  52  74 W8G17     30.13R
DUBOIS         CLOUDY    62  50  64 W15       30.15R
CLEARFIELD       N/A    N/A N/A N/A MISG      30.15R
JOHNSTOWN      CLOUDY    61  49  64 W13       30.18R
ALTOONA        CLOUDY    67  52  58 W10       30.17R
STATE COLLEGE  MOSUNNY   64  52  63 SW8       30.14S
WILLIAMSPORT   CLOUDY    46  39  76 CALM      30.15R
SELINSGROVE    LGT RAIN  48  41  76 CALM      30.15R
FT INDIANTOWN  CLOUDY    53  44  71 W5        30.14S
CAPITAL CITY   CLOUDY    57  43  59 CALM      30.15F
HARRISBURG     CLOUDY    50  42  74 CALM      30.15S
YORK           CLOUDY    63  50  62 CALM      30.15S
$$

PAZ038>040-043-044-047-048-054-055-060>062-067>071-251500-
EASTERN PENNSYLVANIA

CITY           SKY/WX    TMP DP  RH WIND       PRES   REMARKS
SCRANTON       CLOUDY    46  39  76 N5        30.14F
MOUNT POCONO   MOSUNNY   48  44  86 SW3       30.13F
ALLENTOWN      MOSUNNY   54  40  59 CALM      30.13F
QUAKERTOWN*    MOSUNNY   59  45  58 SW3       30.15S
READING        MOSUNNY   57  44  62 CALM      30.15S
LANCASTER      CLOUDY    54  44  69 CALM      30.15S
COATESVILLE    CLOUDY    59  46  63 SW5G12    30.17S
POTTSTOWN      CLOUDY    53  41  63 CALM      30.16S
BLUE BELL      CLOUDY    55  46  71 CALM      30.15F
DOYLESTOWN     MOSUNNY   56  45  66 SW6       30.14R
WILLOW GROVE   NOT AVBL
NORTH PHILA    CLOUDY    59  47  64 SW8       30.17R
PHILADELPHIA   CLOUDY    58  47  66 SW12      30.17S
$$




USA.gov is the U.S. government's official web portal to all federal, state and local government web resources and services.